Iron Mountain, MI

2:10 PM CDT on September 22, 2017 (GMT -0500)
Ford

Weather History for KIMT - July, 2013

Change the Weather History Date:

Thursday, July 25, 2013

  Actual Average Record
Temperature  
Mean Temperature 63 °F -  
Max Temperature 81 °F 81 °F 93 °F (1941)
Min Temperature 46 °F 56 °F 40 °F (1959)
Degree Days  
Heating Degree Days 2    
Growing Degree Days 13 (Base 50)    
Moisture  
Dew Point 55 °F    
Average Humidity 79    
Maximum Humidity 100    
Minimum Humidity 43    
Precipitation  
Precipitation 0.09 in - - ()
Sea Level Pressure  
Sea Level Pressure 29.96 in    
Wind  
Wind Speed 4 mph (SE)    
Max Wind Speed 14 mph    
Max Gust Speed 25 mph    
Visibility 8 miles    
Events Fog , Rain , Thunderstorm    
Averages and records for this station are not official NWS values.
T = Trace of Precipitation, MM = Missing Value Source: NWS Daily Summary

Daily Weather History Graph

Daily Weather History Graph

Search for Another Location

Airport or City:

Trip Planner

Search our weather history database for the weather conditions in past years. The results will help you decide how hot, cold, wet, or windy it might be!

Date:

Astronomy

Jul. 25, 2013 Rise Set
Actual Time 5:27 AM CDT 8:29 PM CDT
Civil Twilight 4:52 AM CDT 9:04 PM CDT
Nautical Twilight 4:06 AM CDT 9:50 PM CDT
Astronomical Twilight 3:11 AM CDT 10:44 PM CDT
Moon 9:53 PM CDT (7/25) 9:11 AM CDT (7/25)
Length of Visible Light 16h 12m
Length of Day
15h 01m
Waning Gibbous, 88% of the Moon is Illuminated
Jul 25
Waning Gibbous
Jul 29
Last Quarter
Aug 6
New
Aug 14
First Quarter
Aug 20
Full

Hourly Weather History & Observations

Time (CDT) Temp. Heat Index Dew Point Humidity Pressure Visibility Wind Dir Wind Speed Gust Speed Precip Events Conditions
12:54 AM 55.9 °F - 53.1 °F 90% 30.01 in 10.0 mi Calm Calm - N/A   Partly Cloudy
1:54 AM 53.1 °F - 51.1 °F 93% 30.00 in 10.0 mi Calm Calm - N/A   Clear
2:54 AM 52.0 °F - 50.0 °F 93% 30.00 in 10.0 mi Calm Calm - N/A   Clear
3:54 AM 52.0 °F - 50.0 °F 93% 30.00 in 10.0 mi Calm Calm - N/A   Clear
4:35 AM 51.8 °F - 48.2 °F 88% 29.99 in 1.8 mi Calm Calm - N/A   Clear
4:54 AM 50.0 °F - 48.0 °F 93% 30.00 in 4.0 mi Calm Calm - N/A   Clear
4:58 AM 50.0 °F - 48.2 °F 94% 29.99 in 1.8 mi Calm Calm - N/A   Clear
5:13 AM 48.2 °F - 46.4 °F 93% 29.99 in 0.5 mi Calm Calm - N/A Fog Fog
5:44 AM 50.0 °F - 48.2 °F 94% 29.99 in 1.2 mi Calm Calm - N/A   Partly Cloudy
5:47 AM 48.2 °F - 48.2 °F 100% 29.99 in 4.0 mi Calm Calm - N/A   Partly Cloudy
5:51 AM 46.4 °F - 46.4 °F 100% 29.99 in 1.8 mi Calm Calm - N/A   Partly Cloudy
5:54 AM 48.0 °F - 46.0 °F 93% 30.00 in 1.8 mi Calm Calm - N/A   Partly Cloudy
6:09 AM 48.2 °F - 46.4 °F 93% 30.00 in 0.5 mi Calm Calm - N/A Fog Fog
6:15 AM 50.0 °F - 48.2 °F 94% 30.00 in 2.0 mi Calm Calm - N/A   Clear
6:23 AM 51.8 °F - 48.2 °F 88% 30.00 in 9.0 mi Calm Calm - N/A   Clear
6:54 AM 54.0 °F - 51.1 °F 90% 30.01 in 10.0 mi Calm Calm - N/A   Clear
7:54 AM 64.0 °F - 53.1 °F 67% 30.01 in 10.0 mi SSE 3.5 mph - N/A   Clear
8:54 AM 69.1 °F - 54.0 °F 58% 30.01 in 10.0 mi South 5.8 mph - N/A   Partly Cloudy
9:54 AM 73.9 °F - 55.0 °F 52% 29.99 in 10.0 mi South 9.2 mph - N/A   Clear
10:54 AM 73.0 °F - 55.0 °F 53% 30.00 in 10.0 mi South 11.5 mph - N/A   Mostly Cloudy
11:54 AM 78.1 °F - 55.0 °F 45% 29.98 in 10.0 mi South 13.8 mph - N/A   Clear
12:54 PM 77.0 °F - 55.0 °F 47% 29.97 in 10.0 mi SSW 11.5 mph - N/A   Overcast
1:54 PM 80.1 °F 80.2 °F 55.9 °F 43% 29.96 in 10.0 mi SSW 11.5 mph - N/A   Mostly Cloudy
2:54 PM 78.1 °F - 57.0 °F 48% 29.94 in 10.0 mi South 13.8 mph - N/A   Mostly Cloudy
3:54 PM 79.0 °F - 57.0 °F 47% 29.91 in 10.0 mi South 12.7 mph 21.9 mph N/A   Mostly Cloudy
4:54 PM 79.0 °F - 57.0 °F 47% 29.90 in 10.0 mi South 12.7 mph - N/A   Scattered Clouds
5:54 PM 79.0 °F - 60.1 °F 52% 29.88 in 10.0 mi South 12.7 mph - N/A   Partly Cloudy
6:54 PM 68.0 °F - 57.9 °F 70% 29.91 in 10.0 mi North 13.8 mph 21.9 mph N/A   Overcast
7:12 PM 66.2 °F - 57.2 °F 73% 29.91 in 10.0 mi NE 12.7 mph - N/A Thunderstorm Overcast
7:27 PM 64.4 °F - 57.2 °F 77% 29.92 in 10.0 mi NE 8.1 mph 17.3 mph N/A   Overcast
7:54 PM 64.9 °F - 57.9 °F 78% 29.92 in 10.0 mi ENE 6.9 mph - N/A   Overcast
8:02 PM 64.4 °F - 57.2 °F 77% 29.93 in 10.0 mi North 11.5 mph - N/A Thunderstorm Overcast
8:15 PM 64.4 °F - 57.2 °F 77% 29.92 in 10.0 mi Variable 5.8 mph - 0.00 in Rain Light Rain
8:33 PM 62.6 °F - 57.2 °F 82% 29.91 in 10.0 mi Variable 3.5 mph - 0.00 in Thunderstorm Mostly Cloudy
8:41 PM 62.6 °F - 57.2 °F 82% 29.92 in 10.0 mi ESE 8.1 mph - 0.00 in Thunderstorm Mostly Cloudy
8:54 PM 63.0 °F - 57.9 °F 84% 29.91 in 10.0 mi East 6.9 mph - 0.00 in Rain , Thunderstorm Light Rain
9:10 PM 62.6 °F - 59.0 °F 88% 29.91 in 10.0 mi ESE 8.1 mph - 0.00 in   Overcast
9:24 PM 62.6 °F - 59.0 °F 88% 29.92 in 10.0 mi ESE 8.1 mph - 0.00 in   Overcast
9:46 PM 62.6 °F - 59.0 °F 88% 29.92 in 10.0 mi SE 8.1 mph - 0.00 in   Overcast
9:54 PM 62.1 °F - 59.0 °F 90% 29.91 in 10.0 mi ESE 5.8 mph - 0.00 in   Overcast
10:11 PM 62.6 °F - 59.0 °F 88% 29.93 in 10.0 mi ESE 8.1 mph - N/A   Overcast
10:29 PM 62.6 °F - 59.0 °F 88% 29.95 in 10.0 mi NNW 6.9 mph 25.3 mph N/A Thunderstorm Thunderstorm
10:44 PM 62.6 °F - 59.0 °F 88% 29.94 in 10.0 mi Calm Calm - 0.00 in Thunderstorm Overcast
10:54 PM 63.0 °F - 59.0 °F 87% 29.93 in 10.0 mi East 5.8 mph - 0.00 in Rain Light Rain
11:35 PM 62.6 °F - 60.8 °F 94% 29.93 in 10.0 mi ESE 3.5 mph - 0.00 in Thunderstorm Overcast
11:50 PM 62.6 °F - 60.8 °F 94% 29.94 in 4.0 mi SSE 3.5 mph - 0.08 in Rain , Thunderstorm Rain
11:54 PM 63.0 °F - 60.1 °F 90% 29.93 in 3.0 mi Calm Calm - 0.09 in Rain , Thunderstorm Heavy Thunderstorms and Rain